PST,Max TemperatureF,Mean TemperatureF,Min TemperatureF,Max Dew PointF,MeanDew PointF,Min DewpointF,Max Humidity, Mean Humidity, Min Humidity, Max Sea Level PressureIn, Mean Sea Level PressureIn, Min Sea Level PressureIn, Max VisibilityMiles, Mean VisibilityMiles, Min VisibilityMiles, Max Wind SpeedMPH, Mean Wind SpeedMPH, Max Gust SpeedMPH,PrecipitationIn, CloudCover, Events, WindDirDegrees
2011-11-1,46,35,23,34,21,0,92,63,33,30.35,30.08,29.81,10,10,10,25,11,32,0.00,5,Rain-Thunderstorm,354
2011-11-2,47,28,9,10,7,5,76,48,19,30.58,30.42,30.27,10,10,6,14,5,21,0.00,0,,119
2011-11-3,53,35,17,9,5,2,56,35,14,30.25,29.91,29.54,10,10,10,36,22,48,0.00,0,,166
2011-11-4,43,32,21,28,23,8,92,60,27,29.75,29.65,29.47,10,4,0,35,13,47,0.29,6,Fog-Snow-Thunderstorm,355
2011-11-5,32,16,0,19,12,-2,95,69,43,30.04,29.89,29.74,10,10,10,12,5,15,0.00,5,,233
2011-11-6,32,22,11,27,19,8,96,77,58,30.06,29.95,29.87,10,6,0,20,5,23,0.06,6,Fog-Snow,202
2011-11-7,36,24,12,25,19,9,96,74,52,30.29,30.09,29.97,10,7,0,20,7,24,T,6,Fog-Snow,319
2011-11-8,40,25,9,17,11,5,84,59,33,30.54,30.41,30.30,10,10,10,14,6,16,0.00,0,,171
2011-11-9,49,29,8,19,13,5,88,56,24,30.67,30.53,30.44,10,10,10,13,6,15,0.00,0,,158
2011-11-10,54,36,17,19,12,5,73,44,14,30.48,30.32,30.14,10,10,10,17,7,23,0.00,0,,162
2011-11-11,49,35,20,25,17,12,73,48,23,30.12,29.97,29.75,10,10,10,20,9,54,0.00,4,,177
2011-11-12,48,41,33,27,25,22,70,55,39,29.83,29.75,29.68,10,10,10,24,14,31,0.00,5,,193
2011-11-13,51,37,22,30,23,15,70,48,26,29.96,29.85,29.77,10,10,10,21,8,29,0.00,3,,250
2011-11-14,52,37,21,20,14,8,68,43,18,30.06,29.94,29.85,10,10,10,17,8,22,0.00,2,,202
2011-11-15,47,32,16,22,17,12,84,59,33,30.23,30.09,29.97,10,10,10,16,8,21,0.00,5,,256
2011-11-16,49,31,13,20,13,7,88,54,20,30.39,30.30,30.22,10,10,10,13,5,28,0.00,0,,166
2011-11-17,55,37,18,22,18,13,84,53,22,30.27,30.04,29.72,10,10,10,18,7,23,0.00,0,,179
2011-11-18,54,42,29,21,18,11,56,39,22,29.72,29.56,29.39,10,10,5,33,15,45,0.00,2,,206
2011-11-19,44,32,20,19,16,13,77,52,27,29.86,29.79,29.66,10,10,10,15,5,17,0.00,2,,231
2011-11-20,45,36,26,30,23,16,82,61,39,29.94,29.86,29.78,10,10,10,24,9,29,T,7,,178
2011-11-21,47,35,22,32,26,18,89,65,41,30.24,30.06,29.91,10,10,6,14,7,20,T,4,Snow,193
2011-11-22,54,37,19,26,22,17,91,58,24,30.35,30.25,30.12,10,10,10,21,7,25,0.00,0,,179
2011-11-23,57,45,33,24,18,11,59,37,15,30.14,29.98,29.81,10,10,10,25,18,33,0.00,0,,191
2011-11-24,53,38,23,27,22,18,75,52,28,30.04,29.90,29.79,10,10,10,25,11,35,0.00,0,,190
2011-11-25,50,35,19,25,16,10,84,53,21,30.43,30.25,30.06,10,10,10,24,8,30,0.00,1,,281
2011-11-26,48,31,13,18,12,9,88,55,21,30.74,30.63,30.46,10,10,10,13,6,21,0.00,0,,161
2011-11-27,63,41,19,17,14,10,68,42,16,30.66,30.49,30.32,10,10,10,16,7,20,0.00,0,,167
2011-11-28,61,43,24,17,12,6,57,34,11,30.45,30.33,30.21,10,10,10,16,8,26,0.00,1,,171
2011-11-29,59,39,18,17,13,10,68,42,16,30.42,30.30,30.12,10,10,10,17,7,20,0.00,0,,180
2011-11-30,50,34,18,25,18,12,84,55,26,30.10,30.02,29.94,10,8,1,33,15,41,T,5,Snow,357